Location: Unspecified
(0.0000°N, 0.0000°E)
Time: 14:32:51
(UTC+00:00)

BEESAT 2 - Pass Details

Date: 11 December 2019
Orbit: 489 x 536 km, 64.9° (Epoch: 14 August)

Event Time Altitude Azimuth Distance (km) Brightness Sun altitude
Rises 19:49:31 0° 328° (NNW) 2,666 ? -26.6°
Enters shadow 19:50:56 - 325° (NW) 2,105 ? -26.9°
Exits shadow 19:58:53 14° 178° (S) 1,578 ? -28.7°
Drops below altitude 10° 19:59:27 10° 175° (S) 1,793 ? -28.8°
Sets 20:01:43 0° 168° (SSE) 2,685 ? -29.3°
